Location: A�t �Alizem
(31.2076°N, 8.7872°W)
Time: 14:45:54
(UTC+00:00)

Cosmos 923 Rocket - Pass Details

Date: 27 November 2020
Orbit: 757 x 786 km, 74.0° (Epoch: 25 January)

Event Time Altitude Azimuth Distance (km) Brightness Sun altitude
Rises 19:34:08 0° 200° (SSW) 3,199 7.6 -25.6°
Reaches altitude 10° 19:36:30 10° 203° (SSW) 2,276 6.8 -26.1°
Maximum altitude 19:41:38 70° 287° (WNW) 804 4.1 -27.1°
Enters shadow 19:42:28 59° 340° (NNW) 876 4.2 -27.3°
